"Pseudo-MPEC" for P1162On

Created 2020 Sep 17 0:07:34 UT using Find_Orb

Click here for an explanation of pseudo-MPECs

 
 Astrometry: 
     P1162On  C2020 09 14A]TwDP.upYf]$YDAstrometrya*?m!9q!Xn4^P/A*-?[-'0Wav7DF51
     P1162On  C2020 09 14UKBpUb=1U410F%y*V.%:;xO%93fjKeyvao+#fXT(C-B^=P=2F;;@F51
     P1162On  C2020 09 14U6ay;xkgGPE3m#guA\BYTsvfs7[u1j1redacted;rixgq@4He!oBF51
     P1162On  C2020 09 14BDCceB48r1/6-urmpSF]J@LL+'u'J?Jgjd4\\inF%UA_'hUZhm_.F51
     P1162On  C2020 09 15.44075 01 45 29.62 -09 11 52.9    ~9GMb 21.6 GVNEOCPG96
     P1162On  C2020 09 15.45628 01 45 30.96 -09 12 07.8    ~9GMb 22.3 GVNEOCPG96
     P1162On  C2020 09 15?emauJZy8ZCI88t^q)YV0Hfk6Y*yRolRVAWkuo%KNDc@rk![H2)hF51
     P1162On  C2020 09 15.48128 01 45 32.88 -09 12 31.0    ~9FC7 21.0 GVNEOCPV06
     P1162On  C2020 09 15.48366 01 45 33.04 -09 12 33.0    ~9FC7 21.8 GVNEOCPV06
     P1162On  C2020 09 15WtGasS0?+clickA;b2617T\fy`qRM]T9ABp;C1hvAa[bxN8cfG,lF51
     P1162On  C2020 09 15.48603 01 45 33.24 -09 12 35.2    ~9FC7 21.9 GVNEOCPV06
     P1162On  C2020 09 15KVDxmR74ta)qrKmn3)Vi[+\DK)DW)x#..H-TxjO`tF2En2Q72v^VF51
     P1162On  C2020 09 15GgU$J-[hereX)?r^bgX\gj\5qnfbJx^./+OcS%DfAfor(_9@#-58F51
     P1162On  C2020 09 16NNdQwP9G)w08\90EG5C3WKrJkPRes'EGkPDuCF$tVpVIUpy]MJVQF51
     P1162On  C2020 09 16`2H%+O%,tU+JSQ(May*0%_'u8dctTYZf':K1?W_Nb/'m8UTk9eJRF51
     P1162On  C2020 09 16FFkdT_0gsPng!Y,3s[O\Ctqw?dj=bj.MlfW)9-Q'/e3v^HK@?no6F51
     P1162On  C2020 09 16F4UbXr%H,ovr%13explanation08BuY(DGlo88]mUeZE@gAlm#'0F51

Station data:
(F51) Pan-STARRS 1, Haleakala  (N20.707235 W156.255910)  US/Hawaii.
   Observers N. Primak, A. Schultz, S. Watters, J. Thiel, T. Goggia. Measurer
   PS1 Science Consortium. 1.8-m Ritchey-Chrétien + CCD.
(G96) Mt. Lemmon Survey  (N32.442754 W110.788720)  US/Arizona.  Observers T.
   A. Pruyne, B. M. Africano, E. J. Christensen, G. A. Farneth, D. C. Fuls,
   A. R. Gibbs, A. D. Grauer, H. Gröller, J. A. Johnson, R. A. Kowalski, S.
   M. Larson, G. J. Leonard, D. Rankin, R. L. Seaman, F. C. Shelly. 1.5-m
   reflector + 10K CCD.
(V06) Catalina Sky Survey-Kuiper  (N32.416847 W110.732550)  US/Arizona.
   Observers T. A. Pruyne, B. M. Africano, E. J. Christensen, G. A. Farneth,
   D. C. Fuls, A. R. Gibbs, A. D. Grauer, H. Gröller, J. A. Johnson, R. A.
   Kowalski, S. M. Larson, G. J. Leonard, D. Rankin, R. L. Seaman, F. C.
   Shelly. 1.55-m reflector + CCD.

Orbital elements:  P1162On
   Perihelion 2020 Oct 15.923284 +/- 1.17 TT = 22:09:31 (JD 2459138.423284)
Epoch 2020 Sep 16.0 TT = JDT 2459108.5   Earth MOID: 0.3589   Ma: 0.0607
M 351.15828022 +/- 0.7              (J2000 ecliptic)          AutoNEOCP
n   0.29547959 +/- 0.0152           Peri.  246.96155 +/- 1.4
a   2.23246359 +/- 0.0767           Node   136.62234 +/- 0.6
e   0.4051768 +/- 0.0155            Incl.    7.84302 +/- 0.22
P   3.34                   H 22.2   G  0.15   U  9.9  
q 1.32792094 +/- 0.0108    Q 3.13700623 +/- 0.139
From 17 observations 2020 Sept. 14-16; mean residual 0".29
Residuals in arcseconds: 
200914 F51  .09-  .14-    200915 F51  .10-  .26+    200915 F51  .21-  .19+    
200914 F51  .07-  .05-    200915 V06  .05-  .12-    200916 F51  .02+  .23-    
200914 F51  .05-  .05+    200915 V06  .53-  .09+    200916 F51  .02-  .02-    
200914 F51  .05-  .14-    200915 F51  .19-  .06+    200916 F51  .06-  .04-    
200915 G96  .03+  .13+    200915 V06  .42-  .10+    200916 F51  .09-  .02+    
200915 G96  1.4+  .24-    200915 F51  .22-  .26+    

Ephemerides (geocentric):
Date (UTC) HH   RA              Dec         delta   r     elong  mag " sig PA
---- -- -- --  -------------   -----------  ------ ------ -----  --- ---- ---
2020 09 17 00  01 47 44.659   -09 36 11.97  .39683 1.3558 147.2 21.9 .198 177
2020 09 17 01  01 47 48.196   -09 36 51.48  .39671 1.3557 147.2 21.9 .189 173
2020 09 17 02  01 47 51.729   -09 37 31.00  .39659 1.3557 147.2 21.9 .182 169
2020 09 17 03  01 47 55.259   -09 38 10.53  .39647 1.3556 147.2 21.9 .175 164
2020 09 17 04  01 47 58.786   -09 38 50.06  .39634 1.3555 147.3 21.9 .170 159
2020 09 17 05  01 48 02.309   -09 39 29.60  .39622 1.3554 147.3 21.9 .167 153
2020 09 17 06  01 48 05.829   -09 40 09.14  .39610 1.3554 147.3 21.9 .165 146
2020 09 17 07  01 48 09.346   -09 40 48.69  .39598 1.3553 147.3 21.9 .166 140
2020 09 17 08  01 48 12.859   -09 41 28.24  .39586 1.3552 147.3 21.9 .168 133
2020 09 17 09  01 48 16.370   -09 42 07.80  .39574 1.3551 147.3 21.9 .174 127
2020 09 17 10  01 48 19.876   -09 42 47.37  .39562 1.3550 147.3 21.9 .181 121
2020 09 17 11  01 48 23.380   -09 43 26.93  .39550 1.3550 147.4 21.9 .191 115
2020 09 17 12  01 48 26.880   -09 44 06.51  .39538 1.3549 147.4 21.9 .203 110
2020 09 17 13  01 48 30.377   -09 44 46.09  .39526 1.3548 147.4 21.9 .216 105
2020 09 17 14  01 48 33.871   -09 45 25.67  .39514 1.3547 147.4 21.9 .232 101
2020 09 17 15  01 48 37.361   -09 46 05.26  .39502 1.3547 147.4 21.9 .249  97
2020 09 17 16  01 48 40.848   -09 46 44.85  .39490 1.3546 147.4 21.9 .267  94
2020 09 17 17  01 48 44.331   -09 47 24.45  .39479 1.3545 147.5 21.9 .287  91
2020 09 17 18  01 48 47.812   -09 48 04.05  .39467 1.3544 147.5 21.9 .308  88
2020 09 17 19  01 48 51.289   -09 48 43.65  .39455 1.3543 147.5 21.9 .329  86
2020 09 17 20  01 48 54.762   -09 49 23.26  .39443 1.3543 147.5 21.9 .352  84
2020 09 17 21  01 48 58.232   -09 50 02.87  .39431 1.3542 147.5 21.9 .376  82
2020 09 17 22  01 49 01.699   -09 50 42.49  .39420 1.3541 147.5 21.9 .400  80
2020 09 17 23  01 49 05.163   -09 51 22.11  .39408 1.3540 147.5 21.9 .425  79
2020 09 18 00  01 49 08.623   -09 52 01.73  .39396 1.3540 147.6 21.9 .451  78
2020 09 18 01  01 49 12.080   -09 52 41.36  .39384 1.3539 147.6 21.9 .478  77
2020 09 18 02  01 49 15.533   -09 53 20.99  .39373 1.3538 147.6 21.9 .506  76
2020 09 18 03  01 49 18.984   -09 54 00.62  .39361 1.3537 147.6 21.9 .534  75
2020 09 18 04  01 49 22.430   -09 54 40.26  .39350 1.3537 147.6 21.9 .562  74
2020 09 18 05  01 49 25.874   -09 55 19.89  .39338 1.3536 147.6 21.9 .592  73
2020 09 18 06  01 49 29.314   -09 55 59.54  .39326 1.3535 147.7 21.9 .622  72
2020 09 18 07  01 49 32.751   -09 56 39.18  .39315 1.3534 147.7 21.9 .652  72
2020 09 18 08  01 49 36.184   -09 57 18.83  .39303 1.3534 147.7 21.9 .684  71
2020 09 18 09  01 49 39.614   -09 57 58.47  .39292 1.3533 147.7 21.9 .715  70
2020 09 18 10  01 49 43.041   -09 58 38.12  .39280 1.3532 147.7 21.9 .748  70
2020 09 18 11  01 49 46.464   -09 59 17.78  .39269 1.3531 147.7 21.9 .781  69
2020 09 18 12  01 49 49.884   -09 59 57.43  .39257 1.3531 147.7 21.9 .814  69
2020 09 18 13  01 49 53.301   -10 00 37.09  .39246 1.3530 147.8 21.9 .849  69
2020 09 18 14  01 49 56.714   -10 01 16.75  .39234 1.3529 147.8 21.9 .883  68
2020 09 18 15  01 50 00.124   -10 01 56.41  .39223 1.3528 147.8 21.9 .919  68
2020 09 18 16  01 50 03.530   -10 02 36.07  .39212 1.3528 147.8 21.9 .954  68
2020 09 18 17  01 50 06.933   -10 03 15.73  .39200 1.3527 147.8 21.9 0.99  67
2020 09 18 18  01 50 10.333   -10 03 55.39  .39189 1.3526 147.8 21.9 1.03  67
2020 09 18 19  01 50 13.729   -10 04 35.06  .39178 1.3525 147.9 21.9 1.07  67
2020 09 18 20  01 50 17.122   -10 05 14.72  .39166 1.3525 147.9 21.9 1.10  66
2020 09 18 21  01 50 20.512   -10 05 54.39  .39155 1.3524 147.9 21.9 1.14  66
2020 09 18 22  01 50 23.898   -10 06 34.06  .39144 1.3523 147.9 21.9 1.18  66
2020 09 18 23  01 50 27.281   -10 07 13.73  .39133 1.3522 147.9 21.9 1.22  66